This is the latest recevied weather packets stored in our database for station/object LA5PPA-1. If no packets are shown the sender has not sent any weather packets the latest 10 day(s).
| Time | Temp. | Humidity | Pressure | Rain* | Wind** | Luminosity | Snow |
|---|---|---|---|---|---|---|---|
| 1778162811 | 8.33° C | 31% | 1021 hPa | 0 mm | - | - | - |
| 1778162511 | 8.33° C | 30% | 1021 hPa | 0 mm | - | - | - |
| 1778162211 | 8.33° C | 30% | 1021 hPa | 0 mm | - | - | - |
| 1778161911 | 7.78° C | 31% | 1021 hPa | 0 mm | - | - | - |
| 1778161611 | 7.22° C | 30% | 1021.1 hPa | 0 mm | - | - | - |
| 1778161311 | 7.22° C | 31% | 1021.1 hPa | 0 mm | - | - | - |
| 1778161011 | 7.78° C | 30% | 1021.1 hPa | 0 mm | - | - | - |
| 1778160711 | 8.33° C | 27% | 1021 hPa | 0 mm | - | - | - |
| 1778160411 | 8.33° C | 30% | 1021.1 hPa | 0 mm | - | - | - |
| 1778160111 | 8.89° C | 29% | 1021 hPa | 0 mm | - | - | - |
| 1778159811 | 9.44° C | 29% | 1021 hPa | 0 mm | - | - | - |
| 1778159511 | 8.89° C | 31% | 1021 hPa | 0 mm | - | - | - |
| 1778159211 | 8.89° C | 29% | 1021.1 hPa | 0 mm | - | - | - |
| 1778158911 | 8.89° C | 28% | 1021 hPa | 0 mm | - | - | - |
| 1778158611 | 8.89° C | 30% | 1021.1 hPa | 0 mm | - | - | - |
| 1778158311 | 8.89° C | 32% | 1021.1 hPa | 0 mm | - | - | - |
| 1778158011 | 8.33° C | 29% | 1021 hPa | 0 mm | - | - | - |
| 1778157711 | 7.78° C | 34% | 1021.1 hPa | 0 mm | - | - | - |
| 1778157411 | 7.78° C | 31% | 1021.1 hPa | 0 mm | - | - | - |
| 1778157111 | 7.78° C | 32% | 1021.1 hPa | 0 mm | - | - | - |
| 1778156811 | 7.78° C | 31% | 1021 hPa | 0 mm | - | - | - |
| 1778156511 | 7.78° C | 32% | 1021 hPa | 0 mm | - | - | - |
| 1778156211 | 7.22° C | 35% | 1021 hPa | 0 mm | - | - | - |
| 1778155911 | 6.67° C | 35% | 1021 hPa | 0 mm | - | - | - |
| 1778155611 | 6.67° C | 34% | 1021 hPa | 0 mm | - | - | - |
* Rain latest hour (hover to see other rain measurements)
** Current wind speed in m/s (hover to see current wind gust speed)